View from above orbital plane
|
View from above satellite
|
Ground track
|
The orbit data is extracted from the following two-line orbital elements,
1 15354U 84108B 13168.50205100 .00002549 00000-0 11940-3 0 2442
2 15354 057.0127 220.8329 0014230 234.6105 125.3612 15.23271773573978
| Epoch (UTC): | 17 June 2013 12:02:57 |
| Eccentricity: | 0.0014230 |
| inclination: | 57.0127° |
| perigee height: | 486 km |
| apogee height: | 506 km |
| right ascension of ascending node: | 220.8329° |
| argument of perigee: | 234.6105° |
| revolutions per day: | 15.23271773 |
| mean anomaly at epoch: | 125.3612° |
| orbit number at epoch: | 57397 |
The dashed part of the orbit path shows where the satellite is in the earth's shadow,
|
|